Regional Weather Roundup
Issued by NWS Newport/Morehead, NC

Current Version | Previous Version | Text Only | Print | Product List | Glossary Off
Versions: 1 2 3 4 5 6 7 8 9 10 11 12 13 14 15 16 17 18 19 20 21 22 23 24 25 26 27 28 29 30 31 32 33 34 35 36 37 38 39 40 41 42 43 44 45 46 47 48 49 50
000 ASUS42 KMHX 311713 RWRMHX WEATHER ROUNDUP FOR EASTERN NORTH CAROLINA NATIONAL WEATHER SERVICE NEWPORT/MOREHEAD CITY NC 100 PM EDT FRI JUL 31 2015 NOTE: "FAIR" INDICATES FEW OR NO CLOUDS BELOW 12,000 FEET WITH NO SIGNIFICANT WEATHER AND/OR OBSTRUCTIONS TO VISIBILITY NCZ015>017-031-032-045>047-102-103-311800- NORTH COAST CITY SKY/WX TMP DP RH WIND PRES REMARKS EDENTON N/A 85 73 66 N10 29.93S ELIZABETH CITY SUNNY 87 68 52 NE17 29.92S KITTY HAWK MOSUNNY 86 73 66 N12 29.91R MANTEO PTSUNNY 84 74 72 N13 29.91S $$ NCZ045>047-081-094-103-104-311800- CENTRAL COAST CITY SKY/WX TMP DP RH WIND PRES REMARKS FRISCO MOSUNNY 88 76 67 N8 29.90R SWANQUARTER N/A 88 N/A N/A N5G14 29.88S $$ NCZ095-097-098-100-101-311800- SOUTHERN COAST CITY SKY/WX TMP DP RH WIND PRES REMARKS BEAUFORT MOSUNNY 90 79 70 NW6 29.90F HX 106 CEDAR ISLAND N/A 86 N/A N/A NW8G15 29.94S JACKSONVILLE MOSUNNY 89 75 63 N6 29.91F PINEY ISLAND MOSUNNY N/A N/A N/A MISG 29.90F WILMINGTON PTSUNNY 88 77 69 W7 29.92F HX 100 $$ NCZ011>013-027>030-043-044-078>080-089-090>093-098-311800- COASTAL PLAIN CITY SKY/WX TMP DP RH WIND PRES REMARKS AHOSKIE SUNNY 85 69 58 NE7 29.94S CLINTON SUNNY 89 72 56 N7 29.94F ELIZABETHTOWN PTSUNNY 89 69 50 CALM 29.94F GOLDSBORO SUNNY 89 69 51 VRB6 29.92F GREENVILLE SUNNY 88 72 58 N3 29.95S HAVELOCK PTSUNNY 89 77 67 N8 29.92S HX 101 KENANSVILLE SUNNY N/A N/A N/A CALM 29.95S KINSTON MOSUNNY 88 72 58 N7 29.94F NEW BERN MOSUNNY 88 74 63 N9 29.93S RICHLANDS PTSUNNY 88 72 58 NW5 29.93S ROCKY MOUNT SUNNY 92 66 42 N12 29.95S WASHINGTON SUNNY 86 74 66 NE8 29.93S WHITEVILLE PTSUNNY 88 73 61 E7 29.93F $$ AMZ130-135-150-152-154-156-158-170-250-252-270-ANZ085-086-088-633-658-670-311800- MARINE OBSERVATIONS STATION/POSITION TIME TEMP WIND PRES WAVE SWELL AIR SEA DIR/SP/G HT/PER HT/PER (UTC) (F) (DEG/KT/KT) (MB) (FT/S) (FT/S) CHESAPEAKE LIGHT 1700 81 20/ 16/ 17 1013.8 64 E VA BEACH 1650 80 81 20/ 14/ 17 1012.0 3/ 6 3/ 6 DUCK 1600 74 65 350/ 10/ 12 1012.1 2 E DUCK 1611 77 N/A 3/ 4 OREGON INLET 1600 82 83 10/ 13/ 16 1012.4 13E OREGON INLT 1700 82 N/A 4/10 2/11 HATTERAS CG 1600 83 82 10/ 9/ 10 1012.0 DIAMOND BUOY 1650 82 86 360/ 8/ 12 1012.4 4/10 3/10 CAPE LOOKOUT 1700 86 350/ 3/ 5 1012.2 BEAUFORT LAB 1600 87 83 310/ 5/ 7 1012.2 30 SE NEW RVR IN NOT AVBL 27 SE WRIGHTSVLE 1600 79 83 320/ 4/ 4 N/A 5 SE WRIGHTSVLE 1608 83 83 150/ 4/ 6 1013.7 225 S CAPE HAT 1650 82 81 240/ 16/ 19 1015.7 8/ 8 5/ 8 41 SE CHARLESTON 1650 81 84 230/ 12/ 14 1013.6 2/ 8 2/ 8 $$

USA.gov is the U.S. government's official web portal to all federal, state and local government web resources and services.